Flag for Nepal Weather past 2 weeks in Pokhara, Nepal

Now
81 °F

Passing clouds.


Feels Like: 82 °F
Forecast: 62 / 87 °F
Wind: 3 mph from Northeast

Location: Kathmandu Airport

Current Time: Jul 29, 2014 at 11:26:54 AM

Latest Report: Jul 29, 2014 at 10:35 AM


Visibility: N/A

Pressure: 29.86 "Hg

Humidity: 58%

Dew point: 64 °F

Location of PokharaLocation

Historic Weather in Pokhara — Graph

°F

Pokhara temperature yesterday

Maximum temperature yesterday: 84 °F (at 11:35 AM)
Minimum temperature yesterday: 70 °F (at 4:35 AM)
Average temperature yesterday: 76 °F

Past Weeks' High & Low Weather Summary

 TemperatureHumidityPressure
High84 °F (Jul 19, 1:35 PM)100% (Jul 14, 7:35 PM)29.98 "Hg (Jul 14, 7:35 PM)
Low68 °F (Jul 17, 4:35 AM)48% (Jul 27, 1:35 PM)29.62 "Hg (Jul 19, 4:35 PM)
Average75 °F79%29.81 "Hg
* Reported Jul 14 9:35 AM — Jul 29 9:35 AM, Pokhara, Weather by CustomWeather, © 2014

Note: Actual official high and low records may vary slightly from our data, if they occured in-between our weather recording intervals... More about our weather records

Advertising

Pokhara weather history for previous 24 hours

 ConditionsComfort  
Time TempWeatherWind HumidityBarometerVisibility
9:35 AM
Jul 29
79 °FScattered clouds.3 mph58%29.86 "HgN/A
8:35 AM75 °FScattered clouds.3 mph74%29.86 "Hg5 mi
7:35 AM72 °FScattered clouds.No wind83%29.86 "Hg6 mi
6:35 AM72 °FBroken clouds.No wind83%29.86 "Hg5 mi
5:35 AM70 °FPartly cloudy.No wind88%29.86 "Hg4 mi
4:35 AM70 °FLight rain. Partly cloudy.No wind88%29.83 "Hg5 mi
3:35 AM72 °FPartly cloudy.3 mph83%29.83 "Hg5 mi
2:35 AM72 °FRain showers. Mostly cloudy.5 mph83%29.83 "Hg2 mi
1:35 AM72 °FPartly cloudy.No wind78%29.83 "Hg5 mi
12:35 AM72 °FThunderstorms. Partly cloudy.5 mph88%29.86 "Hg5 mi
11:35 PM
Jul 28
72 °FPartly cloudy.3 mph88%29.86 "Hg5 mi
10:35 PM73 °FPartly cloudy.6 mph83%29.89 "Hg5 mi
8:35 PM73 °FPartly cloudy.5 mph83%29.83 "Hg5 mi
7:35 PM73 °FBroken clouds.6 mph83%29.83 "HgN/A
6:35 PM75 °FBroken clouds.6 mph78%29.77 "HgN/A
5:35 PM75 °FBroken clouds.3 mph78%29.77 "Hg5 mi
4:35 PM75 °FDrizzle. Cloudy.5 mph83%29.74 "Hg3 mi
3:35 PM81 °FRain. Broken clouds.9 mph58%29.77 "Hg5 mi
2:35 PM82 °FPassing clouds.16 mph58%29.77 "HgN/A
1:35 PM84 °FPassing clouds.12 mph55%29.80 "HgN/A
12:35 PM84 °FPassing clouds.5 mph48%29.80 "HgN/A
11:35 AM84 °FPassing clouds.3 mph48%29.83 "HgN/A
Weather by CustomWeather, © 2014

See weather overviewHow to use our weather pages